Home > Weather > Port-aux-Francais > Past weeks

Flag for French Southern Territories Weather for the Past 2 Weeks in Port-aux-Francais, French Southern Territories

Now
49 °F

Cool.


Feels Like: 43 °F
Forecast: 44 / 53 °F
Wind: 15 mph from West

Location: Port-Aux-Francais Iles Kerguelen

Current Time: Feb 7, 2016 at 9:20:02 PM

Latest Report: Feb 7, 2016 at 8:00 PM


Visibility: N/A

Pressure: 30.11 "Hg

Humidity: 80%

Dew point: 43 °F

Location of Port-aux-FrancaisLocation

Historic Weather in Port-aux-Francais — Graph

°F

Port-aux-Francais Temperature Yesterday

Maximum temperature yesterday: 44 °F (at 11:00 AM)
Minimum temperature yesterday: 37 °F (at 11:00 PM)
Average temperature yesterday: 41 °F

High & Low Weather Summary for the Past Weeks

 TemperatureHumidityPressure
High59 °F (Jan 25, 1:00 PM)96% (Jan 30, 9:00 PM)30.46 "Hg (Jan 30, 9:00 PM)
Low34 °F (Jan 29, 12:00 AM)47% (Jan 28, 1:00 PM)29.15 "Hg (Jan 23, 11:00 PM)
Average45 °F70%29.74 "Hg
* Reported Jan 23 8:00 PM — Feb 7 8:00 PM, Port-aux-Francais, Weather by CustomWeather, © 2016

Note: Actual official high and low records may vary slightly from our data, if they occured in-between our weather recording intervals... More about our weather records

Advertising

Port-aux-Francais Weather History for the Previous 24 Hours

 ConditionsComfort  
Time TempWeatherWind HumidityBarometerVisibility
8:00 PM
Sun, Feb 7
49 °FCool.15 mph80%30.11 "HgN/A
7:00 PM50 °FCool.24 mph73%30.10 "HgN/A
6:00 PM48 °FCool.25 mph77%30.12 "HgN/A
5:00 PM49 °FCool.21 mph68%30.12 "HgN/A
4:00 PM49 °FCool.20 mph66%30.12 "HgN/A
3:00 PM50 °FCool.15 mph54%30.14 "HgN/A
2:00 PM49 °FCool.15 mph51%30.16 "HgN/A
1:00 PM47 °FCool.16 mph58%30.19 "HgN/A
12:00 PM47 °FCool.17 mph58%30.21 "HgN/A
11:00 AM46 °FCool.16 mph59%30.22 "HgN/A
10:00 AM44 °FQuite cool.14 mph62%30.22 "HgN/A
1:00 AM39 °FChilly.30 mph73%30.16 "HgN/A
12:00 AM39 °FChilly.24 mph70%30.16 "HgN/A
11:00 PM
Sat, Feb 6
37 °FChilly.25 mph85%30.14 "HgN/A
10:00 PM40 °FChilly.21 mph65%30.11 "HgN/A
9:00 PM40 °FChilly.25 mph71%30.09 "HgN/A
Weather by CustomWeather, © 2016

See weather overviewHow to use our weather pages